{"data":{"norad_id":41184,"intl_designator":"2015-081F","name":"ORBCOMM FM112","alt_names":[],"object_type":"PAYLOAD","status":"ACTIVE","operator":null,"country":"ORB","launch_date":"2015-12-22","launch_site_code":"AFETR","launch_vehicle":null,"mission":null,"orbit_class":"UNKNOWN","rcs_meters":0.525,"size_class":null,"mass_kg":null,"dimensions":null,"purposes":["comms"],"wikipedia_slug":null,"has_3d_model":false,"image_url":null,"decayed_at":null,"tle_current":{"epoch":"2026-05-25T01:30:51.020064Z","epoch_age_seconds":80326,"freshness":"FRESH","line1":"1 41184U 15081F   26145.06309051  .00000571  00000+0  15705-3 0  9998","line2":"2 41184  47.0007  19.5907 0002464 100.1466 259.9698 14.58863732555575","mean_motion":14.58863732,"eccentricity":0.0002464,"inclination_deg":47.0007,"raan_deg":19.5907,"arg_perigee_deg":100.1466,"mean_anomaly_deg":259.9698,"bstar":0.00015705,"rev_number":55557,"period_min":98.706957230739,"perigee_km":695.10200024359,"apogee_km":698.58855150914,"semimajor_km":7074.9822758764,"source":"CELESTRAK","updated_at":"2026-05-25T13:38:22.866053Z"}}}